Estación municipal de St. Julià de Vilatorta (Osona, E.N.Guilleries-Savassona)

Consulta los datos en tiempo real de la estación municipal de St. Julià de Vilatorta





Hora UTC 14:35
Temperatura 35.5 ºC
Subsuelo 10 cm 46.5 ºC
Humedad 24.1 %
Presión 1018.8 hPa
Pluja 0.0 mm
Velocidad viento 7.7 km/h
Dirección viento ENE
Radiación solar 617.5 W/m²
Fuel 2.5 %

Webcam

Datos diarios 2026-09-04



Hora UTC (invierno +1h; verano +2h)
Temperatura (ºC) Humedad (%) Presión (hPa) Velocidad viento (km/h) Precipitación (mm) Fuel (%) Radiación solar (W/m²)
Hora UTC Aire Subsuelo 10 cm Humedad Presión Vel. Dir. Vel. Max Dir. Intent. máx 5 min. Fuel Rad. Sol.
00:05 19.7 15.9 86.1 1022.3 3.0 ESE 3.0 ESE 0.0 8.2 0.5
00:10 19.7 15.8 86.1 1022.3 3.1 ESE 5.0 E 0.0 8.1 0.4
00:15 19.6 15.7 85.8 1022.2 2.3 SE 3.5 SE 0.0 8.3 0.2
00:20 19.4 15.8 85.7 1022.2 1.5 ESE 2.3 ESE 0.0 8.3 0.2
00:25 19.4 15.8 87.1 1022.2 1.6 ESE 3.1 E 0.0 8.4 0.2
00:30 19.2 15.7 87.1 1022.2 1.4 ESE 3.2 ESE 0.0 8.4 0.0
00:35 19.2 15.5 88.2 1022.1 2.4 SE 3.4 ESE 0.0 8.4 0.4
00:40 19.3 15.4 87.6 1022.1 1.6 SE 3.8 ESE 0.0 8.5 0.6
00:45 19.2 15.4 87.5 1022.1 1.4 SE 3.1 ESE 0.0 8.6 0.2
00:50 19.1 15.4 88.1 1022.0 2.6 SE 4.2 SE 0.0 8.1 0.6
00:55 19.1 15.4 87.6 1022.0 1.4 ESE 2.0 SE 0.0 8.7 0.2
01:00 19.0 15.4 88.1 1022.0 1.5 SE 2.6 SE 0.0 8.7 0.2
01:05 19.0 15.3 89.5 1021.9 1.5 SE 2.3 SE 0.0 8.8 0.6
01:10 18.9 15.2 89.5 1021.8 1.9 SE 3.4 SE 0.0 8.8 0.2
01:15 19.0 15.1 89.3 1021.8 1.9 ESE 2.7 ESE 0.0 8.9 0.3
01:20 18.9 15.0 89.8 1021.8 1.9 SE 3.0 SE 0.0 8.9 0.3
01:25 19.0 15.0 89.5 1021.8 1.6 SE 2.5 SSE 0.0 9.0 0.2
01:30 18.9 15.0 89.6 1021.8 0.5 ESE 1.0 E 0.0 9.0 0.3
01:35 18.8 15.0 90.8 1021.7 1.5 ESE 2.8 E 0.0 9.1 0.7
01:40 18.8 15.0 90.3 1021.8 1.7 SE 2.7 ESE 0.0 9.2 0.1
01:45 18.5 15.2 89.5 1021.7 1.3 SSE 2.3 SSE 0.0 9.2 0.0
01:50 18.3 15.1 90.1 1021.7 1.7 ESE 2.5 E 0.0 9.3 0.1
01:55 18.4 15.0 91.6 1021.7 1.6 SE 2.6 SE 0.0 9.1 0.4
02:00 18.4 14.9 91.9 1021.6 1.7 SE 2.7 ESE 0.0 9.3 0.5
02:05 18.2 15.0 91.3 1021.6 1.2 SE 2.0 ESE 0.0 9.4 0.1
02:10 18.0 14.9 91.6 1021.6 1.4 SSE 3.2 SE 0.0 9.4 0.2
02:15 17.9 14.8 92.0 1021.6 1.4 SE 2.6 SE 0.0 9.5 0.3
02:20 17.8 14.7 92.3 1021.6 1.5 SE 2.6 SSE 0.0 9.0 0.3
02:25 17.9 14.6 93.5 1021.5 1.6 ESE 2.9 SE 0.0 9.6 0.8
02:30 18.2 14.6 94.0 1021.5 1.5 SE 2.2 SE 0.0 9.7 0.5
02:35 18.2 14.5 93.5 1021.5 1.2 SE 2.1 SE 0.0 9.7 0.1
02:40 18.1 14.5 93.1 1021.5 1.3 SSE 2.1 SSE 0.0 9.8 0.0
02:45 17.9 14.8 92.5 1021.5 1.8 SE 3.4 SSE 0.0 9.8 0.0
02:50 17.7 14.8 92.8 1021.5 1.3 SE 2.1 E 0.0 9.9 0.3
02:55 17.6 14.7 93.0 1021.5 1.2 ESE 1.9 ESE 0.0 9.9 0.1
03:00 17.6 14.6 93.4 1021.5 1.3 SE 2.0 SE 0.0 10.0 0.4
03:05 17.6 14.4 94.2 1021.5 0.5 SE 1.0 ESE 0.0 10.0 0.1
03:10 17.6 14.3 94.4 1021.4 1.6 ESE 2.4 ESE 0.0 10.1 0.5
03:15 17.6 14.2 94.5 1021.4 2.0 ESE 3.8 E 0.0 10.2 0.6
03:20 17.6 14.3 94.2 1021.4 1.3 S 2.2 SSW 0.0 10.2 0.1
03:25 17.4 14.3 94.0 1021.3 1.4 SE 2.4 ESE 0.0 9.9 0.0
03:30 17.4 14.3 94.8 1021.3 1.7 ESE 2.8 ESE 0.0 10.3 0.2
03:35 17.6 14.2 95.2 1021.3 1.0 SSE 1.9 SSW 0.0 10.3 0.4
03:40 17.5 14.1 94.9 1021.3 1.7 ESE 3.9 E 0.0 10.4 0.1
03:45 17.5 14.1 95.3 1021.2 2.8 ESE 4.5 E 0.0 10.5 0.3
03:50 17.4 14.2 94.7 1021.2 1.8 SSE 2.5 SSE 0.0 10.6 0.0
03:55 17.5 14.2 95.3 1021.1 3.2 E 4.6 E 0.0 10.6 0.1
04:00 17.4 14.3 94.9 1021.1 1.2 SSE 2.4 SSE 0.0 10.7 0.0
04:05 17.2 14.2 94.7 1021.1 1.2 SSE 3.3 SSE 0.0 10.7 0.1
04:10 17.1 14.5 94.9 1021.1 1.9 SE 3.6 SE 0.0 10.8 0.0
04:15 17.0 14.4 94.9 1021.0 1.4 SSE 2.6 SSE 0.0 10.8 0.0
04:20 17.0 14.2 95.5 1021.0 1.1 SE 1.8 SE 0.0 10.9 0.3
04:25 17.2 14.0 95.7 1021.0 2.6 ESE 5.4 ESE 0.0 10.9 0.3
04:30 17.2 14.0 95.8 1021.1 1.5 SE 2.8 E 0.0 11.0 0.1
04:35 17.3 13.9 96.0 1021.0 3.0 ESE 5.4 ESE 0.0 11.1 0.1
04:40 17.3 14.0 95.9 1021.0 3.5 ESE 5.1 ENE 0.0 11.1 0.0
04:45 17.4 14.1 95.5 1021.0 3.1 ESE 5.1 ESE 0.0 11.2 0.0
04:50 17.5 14.1 95.6 1020.9 3.4 ESE 5.0 ESE 0.0 10.9 0.0
04:55 17.5 14.1 95.0 1020.9 2.6 SE 4.3 ESE 0.0 11.3 0.0
05:00 17.5 14.1 94.8 1020.9 2.0 SE 4.8 SSE 0.0 11.3 0.0
05:05 17.4 13.9 94.7 1020.8 1.3 SE 2.1 SE 0.0 11.3 0.2
05:10 17.3 13.8 94.6 1020.9 1.0 S 1.7 SE 0.0 11.4 0.5
05:15 17.2 13.7 94.9 1020.9 0.4 ENE 0.7 NW 0.0 11.5 1.6
05:20 17.1 13.5 95.2 1020.8 0.6 ESE 1.5 ESE 0.0 11.6 3.0
05:25 17.2 13.4 95.6 1020.8 1.2 SE 2.6 E 0.0 11.6 4.9
05:30 17.2 13.3 95.3 1020.8 2.7 E 5.0 ESE 0.0 11.7 7.1
05:35 17.1 13.4 95.2 1020.7 1.5 ESE 3.1 E 0.0 11.8 9.7
05:40 16.9 13.5 95.2 1020.7 1.0 S 2.6 SE 0.0 11.8 12.8
05:45 16.8 13.6 95.0 1020.8 1.1 S 2.0 SSE 0.0 11.9 16.2
05:50 16.6 13.7 95.0 1020.8 1.0 S 2.0 SSE 0.0 11.9 19.6
05:55 16.6 13.8 95.2 1020.8 1.0 SSE 1.7 SE 0.0 11.8 23.0
06:00 16.8 13.8 96.0 1020.8 1.2 SSE 1.7 SE 0.0 12.0 26.3
06:05 16.9 13.8 96.1 1020.9 1.3 SSE 2.7 SSE 0.0 12.0 29.2
06:10 17.0 14.0 95.7 1020.9 0.9 SE 1.8 ESE 0.0 12.1 31.6
06:15 17.1 14.2 96.0 1021.0 1.1 ESE 1.9 E 0.0 11.9 34.6
06:20 17.2 14.4 95.8 1021.0 0.5 S 1.2 SE 0.0 11.9 36.8
06:25 17.2 14.6 95.7 1021.0 0.6 SE 1.7 SE 0.0 12.2 39.5
06:30 17.3 14.8 95.5 1021.0 0.8 SE 1.5 ESE 0.0 11.9 42.3
06:35 17.5 15.1 94.9 1021.0 1.5 SSE 2.8 WSW 0.0 12.0 114.6
06:40 17.7 15.5 93.7 1020.9 2.0 N 4.4 N 0.0 12.3 196.4
06:45 17.9 15.8 91.8 1020.9 3.0 N 5.9 NNW 0.0 12.3 212.8
06:50 18.4 16.2 85.5 1020.9 4.5 N 6.6 NNE 0.0 12.2 222.3
06:55 19.2 16.5 81.6 1020.9 3.8 N 5.9 NNE 0.0 12.1 228.8
07:00 19.6 17.0 80.0 1020.9 3.8 N 6.1 NW 0.0 11.9 236.0
07:05 19.8 17.4 79.3 1020.9 5.0 NNW 6.9 NNW 0.0 11.8 247.1
07:10 20.0 17.7 78.4 1020.9 3.8 NNW 5.6 NNW 0.0 11.7 258.0
07:15 20.2 18.2 77.0 1020.9 4.6 NNW 5.9 NNW 0.0 11.6 267.6
07:20 20.2 18.9 76.3 1020.9 4.9 N 7.0 NNW 0.0 11.4 281.8
07:25 20.6 19.7 75.1 1020.9 4.0 NNE 6.3 N 0.0 11.3 301.6
07:30 20.7 20.0 74.1 1020.9 3.5 NNW 6.0 N 0.0 11.1 322.6
07:35 20.8 20.3 74.2 1020.9 3.5 NNW 5.7 N 0.0 11.0 342.1
07:40 21.0 20.8 73.9 1020.9 3.0 NNW 5.5 NNW 0.0 10.8 360.6
07:45 21.4 21.0 72.7 1020.8 2.7 NW 5.6 NNW 0.0 10.7 377.5
07:50 21.8 21.4 71.3 1020.8 2.6 NW 4.9 N 0.0 10.6 394.0
07:55 22.0 21.8 70.9 1020.8 2.0 WNW 3.7 WNW 0.0 10.5 408.7
08:00 22.2 22.4 69.5 1020.8 3.2 NNW 5.0 N 0.0 10.4 424.9
08:05 22.5 23.0 68.9 1020.8 1.7 NNW 4.5 N 0.0 10.2 439.0
08:10 23.6 23.8 65.3 1020.7 2.0 SSE 4.4 S 0.0 10.1 454.8
08:15 23.8 24.5 65.3 1020.7 2.8 NW 5.3 NNW 0.0 10.0 471.2
08:20 23.3 25.3 66.9 1020.7 3.7 NNW 5.8 NW 0.0 9.7 486.7
08:25 23.3 26.0 67.6 1020.8 3.1 WNW 5.6 NW 0.0 9.8 499.9
08:30 24.1 26.8 66.6 1020.8 2.7 WNW 6.4 W 0.0 9.7 514.0
08:35 24.2 27.5 65.3 1020.8 2.8 WNW 6.9 NW 0.0 9.6 528.4
08:40 24.2 28.0 64.7 1020.8 1.4 W 4.3 WNW 0.0 9.5 540.4
08:45 25.0 28.7 62.3 1020.8 2.1 W 4.3 WNW 0.0 9.4 552.7
08:50 25.5 29.4 61.7 1020.8 2.4 W 4.9 SSW 0.0 9.3 569.3
08:55 25.4 30.1 61.6 1020.9 1.9 N 4.5 NNW 0.0 9.2 583.0
09:00 26.2 30.9 60.3 1020.8 2.3 NW 5.6 NW 0.0 9.1 596.0
09:05 25.9 31.4 59.9 1020.9 2.8 NNW 4.6 N 0.0 9.0 607.1
09:10 25.9 31.9 60.5 1020.9 2.7 N 4.2 NNW 0.0 8.9 620.0
09:15 26.3 32.0 59.4 1020.9 1.6 NNW 4.2 N 0.0 8.5 631.7
09:20 27.2 32.3 57.2 1020.9 2.4 N 5.1 W 0.0 8.6 643.7
09:25 27.3 32.6 57.5 1020.9 3.4 W 6.4 WSW 0.0 8.6 655.5
09:30 27.5 32.8 56.3 1020.9 3.6 NNW 6.6 N 0.0 8.5 669.2
09:35 27.4 33.0 55.9 1020.8 2.4 NW 4.9 NW 0.0 8.4 679.3
09:40 27.9 33.3 54.4 1020.8 3.1 NNW 6.6 NW 0.0 8.1 689.6
09:45 28.2 33.4 53.0 1020.8 2.3 NW 6.2 N 0.0 8.2 701.9
09:50 28.6 33.7 51.5 1020.8 3.9 NW 6.9 NW 0.0 8.1 712.6
09:55 29.1 34.0 49.4 1020.7 4.2 NW 7.3 NW 0.0 8.0 723.1
10:00 29.4 34.7 47.5 1020.7 3.8 NW 5.8 WNW 0.0 7.9 733.7
10:05 29.4 35.3 47.7 1020.6 5.1 N 8.4 NNW 0.0 7.8 743.0
10:10 29.5 36.0 47.0 1020.6 3.8 NNW 6.7 NW 0.0 7.7 751.9
10:15 29.9 36.8 45.5 1020.6 1.5 SSE 4.5 SSW 0.0 7.5 757.2
10:20 30.6 38.3 43.0 1020.6 3.1 ENE 6.3 NE 0.0 7.5 765.0
10:25 30.7 38.8 43.2 1020.5 3.5 NNE 7.5 NNW 0.0 7.3 774.2
10:30 30.7 38.9 42.0 1020.5 4.0 N 7.4 NW 0.0 7.2 784.7
10:35 31.3 39.9 41.1 1020.5 3.6 W 7.6 WNW 0.0 7.1 789.4
10:40 31.4 40.3 39.5 1020.5 3.4 NW 8.9 WNW 0.0 6.9 796.6
10:45 31.6 40.8 38.7 1020.4 2.8 W 7.7 WSW 0.0 6.8 800.0
10:50 31.8 42.0 37.6 1020.4 3.5 NE 6.4 SE 0.0 6.6 806.0
10:55 31.8 42.6 37.4 1020.3 3.0 N 6.7 NNE 0.0 6.5 811.0
11:00 32.4 42.9 35.6 1020.3 4.8 SSW 10.4 SW 0.0 6.4 818.0
11:05 32.8 43.4 35.4 1020.2 3.2 NNW 7.8 NNW 0.0 6.2 820.0
11:10 32.9 43.8 34.6 1020.2 7.0 WNW 12.1 W 0.0 6.2 826.0
11:15 32.6 43.7 34.2 1020.2 4.6 WSW 10.2 WNW 0.0 6.0 832.0
11:20 32.7 43.9 33.0 1020.1 5.9 WNW 12.1 NW 0.0 5.9 834.0
11:25 32.5 43.9 33.1 1020.1 4.3 SSW 12.1 SSW 0.0 5.8 839.0
11:30 32.9 44.7 33.2 1020.0 3.0 NE 6.5 N 0.0 5.7 834.0
11:35 33.1 44.3 33.2 1020.0 7.2 WNW 15.6 NW 0.0 5.6 836.0
11:40 33.2 44.3 31.5 1020.0 8.6 SSW 15.6 SSW 0.0 4.8 842.0
11:45 33.5 44.2 31.3 1019.9 7.0 NW 15.4 NNW 0.0 4.7 841.0
11:50 32.9 43.2 31.0 1019.9 9.8 NNW 14.1 0.0 4.5 845.0
11:55 33.3 43.1 30.0 1019.9 8.5 NNW 15.4 NNW 0.0 4.5 848.0
12:00 33.9 43.8 28.9 1019.9 7.2 WNW 17.7 WSW 0.0 4.3 849.0
12:05 33.8 43.8 27.9 1019.9 9.1 WNW 18.8 WNW 0.0 4.2 853.0
12:10 33.9 44.0 27.6 1019.9 6.2 WNW 13.5 WNW 0.0 4.2 850.0
12:15 34.2 44.4 27.9 1019.9 6.2 W 10.3 W 0.0 4.0 846.0
12:20 34.5 44.9 26.4 1019.9 6.2 W 16.5 WSW 0.0 4.0 841.0
12:25 34.3 45.3 26.6 1019.8 6.4 NW 16.8 NNW 0.0 3.9 839.0
12:30 34.2 45.3 26.2 1019.7 9.9 NNW 14.0 NNW 0.0 3.8 835.0
12:35 34.1 45.2 26.5 1019.6 6.7 NW 14.0 NW 0.0 3.6 833.0
12:40 34.7 45.5 26.2 1019.6 8.5 WNW 16.3 0.0 3.6 830.0
12:45 34.8 45.9 25.4 1019.6 6.1 WNW 14.3 NW 0.0 3.5 824.0
12:50 34.8 46.0 24.0 1019.6 6.6 NW 14.6 N 0.0 3.4 822.0
12:55 34.7 45.8 25.9 1019.5 9.3 WNW 25.5 N 0.0 3.3 818.0
13:00 35.0 46.1 25.4 1019.5 6.7 SW 13.0 S 0.0 3.3 813.0
13:05 35.2 46.5 25.4 1019.5 3.9 WNW 10.9 W 0.0 3.2 803.0
13:10 35.0 47.5 25.3 1019.4 3.1 NE 7.2 WNW 0.0 3.2 792.7
13:15 35.3 47.5 24.6 1019.4 4.6 WSW 12.5 WNW 0.0 3.2 784.8
13:20 35.8 47.1 23.8 1019.4 6.1 SW 13.4 SW 0.0 3.0 786.5
13:25 35.8 46.7 24.9 1019.4 6.1 NW 15.1 NW 0.0 3.0 781.1
13:30 35.0 46.8 25.1 1019.3 5.8 N 11.6 NW 0.0 2.9 761.3
13:35 35.2 46.5 25.4 1019.3 5.5 WSW 12.1 WNW 0.0 2.9 751.1
13:40 35.8 47.1 24.0 1019.2 6.7 S 12.5 SW 0.0 2.9 738.5
13:45 35.6 46.6 24.8 1019.2 6.7 WNW 12.9 WNW 0.0 2.8 736.1
13:50 35.4 46.0 24.6 1019.1 3.7 WSW 10.1 WNW 0.0 2.8 721.9
13:55 35.7 45.8 24.7 1019.1 7.7 WSW 17.0 W 0.0 2.8 717.5
14:00 36.2 45.8 24.5 1019.1 4.8 SSW 12.8 SSW 0.0 2.7 705.6
14:05 36.6 46.7 23.5 1019.1 5.7 SSW 12.0 SSE 0.0 2.8 693.9
14:10 36.4 46.2 24.5 1019.1 4.5 W 9.6 NW 0.0 2.7 678.8
14:15 35.8 46.9 23.8 1019.0 2.8 NNE 6.7 NNW 0.0 2.7 665.1
14:20 35.7 46.8 24.5 1018.9 5.9 NW 12.9 WNW 0.0 2.6 655.6
14:25 35.8 46.5 24.2 1018.9 6.6 NW 12.2 N 0.0 2.6 646.9
14:30 35.5 46.5 23.9 1018.8 5.9 N 12.0 N 0.0 2.5 639.5
14:35 35.5 46.5 24.1 1018.8 7.7 ENE 13.5 E 0.0 2.5 617.5
Máxima 36.6 47.5 96.1 1022.3 9.9 NNW 25.5 N 0.0 12.3 853.0
Mínima 16.6 13.3 23.5 1018.8 2.5
Total 0.0